| time (UTC) | temp F | wind direction | speed MPH | gust MPH | rain 1hr in | rain 24hr in | rain mn in | humidity % | barometer mb |
| 20260509024525 | 59 | 223 | 2.0 | 5.0 | 0.00 | 0.00 | 0.00 | 55 | |
| 20260509023553 | 59 | 255 | 2.0 | 5.0 | 0.00 | 0.00 | 0.00 | 56 | |
| 20260509022545 | 58 | 237 | 1.0 | 7.0 | 0.00 | 0.00 | 0.00 | 58 | |
| 20260509021702 | 68 | 0.0 | 0.0 | 0.00 | 0.00 | 0.00 | 99 | ||
| 20260509021533 | 58 | 247 | 2.0 | 7.0 | 0.00 | 0.00 | 0.00 | 58 | |
| 20260509020525 | 57 | 241 | 2.0 | 5.0 | 0.00 | 0.00 | 0.00 | 60 | |
| 20260509015533 | 56 | 231 | 2.0 | 6.0 | 0.00 | 0.00 | 0.00 | 61 | |
| 20260509014546 | 56 | 137 | 2.0 | 5.0 | 0.00 | 0.00 | 0.00 | 62 | |
| 20260509013533 | 56 | 63 | 1.0 | 3.0 | 0.00 | 0.00 | 0.00 | 61 | |
| 20260509012525 | 57 | 167 | 1.0 | 5.0 | 0.00 | 0.00 | 0.00 | 60 | |
| 20260509011533 | 57 | 152 | 1.0 | 5.0 | 0.00 | 0.00 | 0.00 | 59 | |
| 20260509010525 | 57 | 178 | 1.0 | 3.0 | 0.00 | 0.00 | 0.00 | 58 | |
| 20260509005534 | 57 | 163 | 1.0 | 3.0 | 0.00 | 0.00 | 0.00 | 59 | |
| 20260509004526 | 57 | 165 | 1.0 | 5.0 | 0.00 | 0.00 | 0.00 | 58 | |
| 20260509003533 | 56 | 183 | 1.0 | 2.0 | 0.00 | 0.00 | 0.00 | 59 | |
| 20260509003114 | 59 | 0.0 | 0.0 | 0.00 | 0.00 | 0.00 | 99 | ||
| 20260509002525 | 56 | 148 | 2.0 | 5.0 | 0.00 | 0.00 | 0.00 | 61 | |
| 20260509002027 | 59 | 0.0 | 0.0 | 0.00 | 0.00 | 0.00 | 99 | ||
| 20260509001533 | 55 | 206 | 2.0 | 5.0 | 0.00 | 0.00 | 0.00 | 63 | |
| 20260509001055 | 57 | 0.0 | 0.0 | 0.00 | 0.00 | 0.00 | 99 | ||
| 20260509000525 | 55 | 174 | 2.0 | 6.0 | 0.00 | 0.00 | 0.00 | 63 | |
| 20260508235534 | 53 | 183 | 2.0 | 5.0 | 0.00 | 0.00 | 0.00 | 65 | |
| 20260508235223 | 56 | 0.0 | 0.0 | 0.00 | 0.00 | 0.00 | 99 | ||
| 20260508234525 | 53 | 176 | 2.0 | 6.0 | 0.00 | 0.00 | 0.00 | 65 | |
| 20260508234021 | 55 | 0.0 | 0.0 | 0.00 | 0.00 | 0.00 | 99 | ||
| 20260508233553 | 53 | 185 | 2.0 | 3.0 | 0.00 | 0.00 | 0.00 | 69 | |
| 20260508233202 | 54 | 0.0 | 0.0 | 0.00 | 0.00 | 0.00 | 99 | ||
| 20260508232526 | 52 | 165 | 2.0 | 6.0 | 0.00 | 0.00 | 0.00 | 74 | |
| 20260508232117 | 53 | 0.0 | 0.0 | 0.00 | 0.00 | 0.00 | 99 | ||
| 20260508231534 | 51 | 178 | 2.0 | 5.0 | 0.00 | 0.00 | 0.00 | 73 | |
| 20260508231047 | 53 | 0.0 | 0.0 | 0.00 | 0.00 | 0.00 | 99 | ||
| 20260508230526 | 48 | 193 | 1.0 | 3.0 | 0.00 | 0.00 | 0.00 | 79 | |
| 20260508230053 | 52 | 0.0 | 0.0 | 0.00 | 0.00 | 0.00 | 99 | ||
| 20260508225538 | 47 | 167 | 1.0 | 2.0 | 0.00 | 0.00 | 0.00 | 83 | |
| 20260508225023 | 52 | 0.0 | 0.0 | 0.00 | 0.00 | 0.00 | 99 | ||
| 20260508224606 | 48 | 159 | 1.0 | 3.0 | 0.00 | 0.00 | 0.00 | 81 | |
| 20260508224145 | 50 | 0.0 | 0.0 | 0.00 | 0.00 | 0.00 | 99 | ||
| 20260508223534 | 46 | 175 | 0.0 | 2.0 | 0.00 | 0.00 | 0.00 | 83 | |
| 20260508223021 | 50 | 0.0 | 0.0 | 0.00 | 0.00 | 0.00 | 99 | ||
| 20260508222526 | 46 | 180 | 1.0 | 3.0 | 0.00 | 0.00 | 0.00 | 84 | |
| 20260508221533 | 47 | 0.0 | 0.0 | 0.00 | 0.00 | 0.00 | 99 | ||
| 20260508220540 | 46 | 0.0 | 0.0 | 0.00 | 0.00 | 0.00 | 99 | ||
| 20260508220525 | 43 | 178 | 1.0 | 2.0 | 0.00 | 0.00 | 0.00 | 90 | |
| 20260508215533 | 43 | 164 | 1.0 | 3.0 | 0.00 | 0.00 | 0.00 | 95 | |
| 20260508214525 | 43 | 179 | 1.0 | 2.0 | 0.00 | 0.00 | 0.00 | 96 | |
| 20260508213533 | 42 | 191 | 1.0 | 2.0 | 0.00 | 0.00 | 0.00 | 97 | |
| 20260508212526 | 41 | 195 | 0.0 | 1.0 | 0.00 | 0.00 | 0.00 | 97 | |
| 20260508211533 | 40 | 187 | 0.0 | 1.0 | 0.00 | 0.00 | 0.00 | 97 | |
| 20260508210856 | 40 | 0.0 | 0.0 | 0.00 | 0.00 | 0.00 | 99 | ||
| 20260508210526 | 39 | 185 | 1.0 | 2.0 | 0.00 | 0.00 | 0.00 | 97 | |
| 20260508205533 | 40 | 0.0 | 0.0 | 0.00 | 0.00 | 0.00 | 97 | ||
| 20260508205522 | 40 | 0.0 | 0.0 | 0.00 | 0.00 | 0.00 | 99 | ||
| 20260508204526 | 40 | 197 | 1.0 | 2.0 | 0.00 | 0.00 | 0.00 | 97 | |
| 20260508203534 | 40 | 205 | 1.0 | 2.0 | 0.00 | 0.00 | 0.00 | 97 | |
| 20260508202525 | 40 | 190 | 0.0 | 1.0 | 0.00 | 0.00 | 0.00 | 97 | |
| 20260508202051 | 40 | 0.0 | 0.0 | 0.00 | 0.00 | 0.00 | 99 | ||
| 20260508201534 | 39 | 181 | 0.0 | 2.0 | 0.00 | 0.00 | 0.00 | 97 | |
| 20260508201041 | 40 | 0.0 | 0.0 | 0.00 | 0.00 | 0.00 | 99 | ||
| 20260508200526 | 40 | 201 | 0.0 | 1.0 | 0.00 | 0.00 | 0.00 | 96 | |
| 20260508200028 | 40 | 0.0 | 0.0 | 0.00 | 0.00 | 0.00 | 99 | ||
| 20260508195534 | 40 | 0.0 | 0.0 | 0.00 | 0.00 | 0.00 | 96 | ||
| 20260508195036 | 41 | 0.0 | 0.0 | 0.00 | 0.00 | 0.00 | 99 | ||
| 20260508194546 | 41 | 190 | 1.0 | 2.0 | 0.00 | 0.00 | 0.00 | 96 | |
| 20260508194026 | 41 | 0.0 | 0.0 | 0.00 | 0.00 | 0.00 | 99 | ||
| 20260508193533 | 41 | 246 | 1.0 | 2.0 | 0.00 | 0.00 | 0.00 | 96 | |
| 20260508193056 | 41 | 0.0 | 0.0 | 0.00 | 0.00 | 0.00 | 99 | ||
| 20260508192525 | 42 | 187 | 1.0 | 2.0 | 0.00 | 0.00 | 0.00 | 96 | |
| 20260508192022 | 42 | 0.0 | 0.0 | 0.00 | 0.00 | 0.00 | 99 | ||
| 20260508191615 | 42 | 242 | 1.0 | 2.0 | 0.00 | 0.00 | 0.00 | 95 | |
| 20260508191030 | 42 | 0.0 | 0.0 | 0.00 | 0.00 | 0.00 | 99 | ||
| 20260508190526 | 42 | 207 | 1.0 | 1.0 | 0.00 | 0.00 | 0.00 | 95 | |
| 20260508190039 | 42 | 0.0 | 0.0 | 0.00 | 0.00 | 0.00 | 99 | ||
| 20260508185534 | 42 | 249 | 2.0 | 3.0 | 0.00 | 0.00 | 0.00 | 94 | |
| 20260508185028 | 42 | 0.0 | 0.0 | 0.00 | 0.00 | 0.00 | 99 | ||
| 20260508184526 | 43 | 250 | 1.0 | 3.0 | 0.00 | 0.00 | 0.00 | 94 | |
| 20260508184055 | 43 | 0.0 | 0.0 | 0.00 | 0.00 | 0.00 | 99 | ||
| 20260508183554 | 43 | 237 | 1.0 | 3.0 | 0.00 | 0.00 | 0.00 | 94 | |
| 20260508183025 | 43 | 0.0 | 0.0 | 0.00 | 0.00 | 0.00 | 99 | ||
| 20260508182526 | 44 | 230 | 1.0 | 3.0 | 0.00 | 0.00 | 0.00 | 93 | |
| 20260508182032 | 43 | 0.0 | 0.0 | 0.00 | 0.00 | 0.00 | 99 | ||
| 20260508181534 | 44 | 0.0 | 0.0 | 0.00 | 0.00 | 0.00 | 93 | ||
| 20260508181022 | 43 | 0.0 | 0.0 | 0.00 | 0.00 | 0.00 | 99 | ||
| 20260508180526 | 44 | 197 | 0.0 | 1.0 | 0.00 | 0.00 | 0.00 | 94 | |
| 20260508180030 | 43 | 0.0 | 0.0 | 0.00 | 0.00 | 0.00 | 99 | ||
| 20260508175534 | 44 | 0.0 | 0.0 | 0.00 | 0.00 | 0.00 | 93 | ||
| 20260508175037 | 43 | 0.0 | 0.0 | 0.00 | 0.00 | 0.00 | 99 | ||
| 20260508174526 | 44 | 216 | 0.0 | 1.0 | 0.00 | 0.00 | 0.00 | 92 | |
| 20260508174047 | 44 | 0.0 | 0.0 | 0.00 | 0.00 | 0.00 | 99 | ||
| 20260508173533 | 44 | 217 | 1.0 | 2.0 | 0.00 | 0.00 | 0.00 | 91 | |
| 20260508173034 | 44 | 0.0 | 0.0 | 0.00 | 0.00 | 0.00 | 99 | ||
| 20260508172525 | 45 | 206 | 0.0 | 1.0 | 0.00 | 0.00 | 0.00 | 90 | |
| 20260508172044 | 45 | 0.0 | 0.0 | 0.00 | 0.00 | 0.00 | 99 | ||
| 20260508171533 | 45 | 0.0 | 0.0 | 0.00 | 0.00 | 0.00 | 90 | ||
| 20260508171032 | 45 | 0.0 | 0.0 | 0.00 | 0.00 | 0.00 | 99 | ||
| 20260508170526 | 45 | 191 | 0.0 | 1.0 | 0.00 | 0.00 | 0.00 | 89 | |
| 20260508170021 | 45 | 0.0 | 0.0 | 0.00 | 0.00 | 0.00 | 99 | ||
| 20260508165534 | 46 | 212 | 0.0 | 1.0 | 0.00 | 0.00 | 0.00 | 90 | |
| 20260508165049 | 46 | 0.0 | 0.0 | 0.00 | 0.00 | 0.00 | 99 | ||
| 20260508164525 | 46 | 203 | 0.0 | 1.0 | 0.00 | 0.00 | 0.00 | 89 | |
| 20260508164037 | 46 | 0.0 | 0.0 | 0.00 | 0.00 | 0.00 | 99 | ||
| 20260508163614 | 46 | 0.0 | 0.0 | 0.00 | 0.00 | 0.00 | 89 | ||
| 20260508163026 | 46 | 0.0 | 0.0 | 0.00 | 0.00 | 0.00 | 99 | ||
| 20260508162546 | 46 | 201 | 0.0 | 1.0 | 0.00 | 0.00 | 0.00 | 90 | |
| 20260508162034 | 46 | 0.0 | 0.0 | 0.00 | 0.00 | 0.00 | 99 | ||
| 20260508161554 | 46 | 0.0 | 0.0 | 0.00 | 0.00 | 0.00 | 90 | ||
| 20260508161023 | 46 | 0.0 | 0.0 | 0.00 | 0.00 | 0.00 | 99 | ||
| 20260508160526 | 46 | 219 | 0.0 | 1.0 | 0.00 | 0.00 | 0.00 | 90 | |
| 20260508160052 | 46 | 0.0 | 0.0 | 0.00 | 0.00 | 0.00 | 99 | ||
| 20260508155534 | 46 | 198 | 0.0 | 1.0 | 0.00 | 0.00 | 0.00 | 90 | |
| 20260508155021 | 46 | 0.0 | 0.0 | 0.00 | 0.00 | 0.00 | 99 | ||
| 20260508154526 | 46 | 0.0 | 0.0 | 0.00 | 0.00 | 0.00 | 90 | ||
| 20260508154029 | 46 | 0.0 | 0.0 | 0.00 | 0.00 | 0.00 | 99 | ||
| 20260508153554 | 46 | 0.0 | 0.0 | 0.00 | 0.00 | 0.00 | 89 | ||
| 20260508153037 | 46 | 0.0 | 0.0 | 0.00 | 0.00 | 0.00 | 99 | ||
| 20260508152526 | 46 | 0.0 | 0.0 | 0.00 | 0.00 | 0.00 | 89 | ||
| 20260508152026 | 46 | 0.0 | 0.0 | 0.00 | 0.00 | 0.00 | 99 | ||
| 20260508151534 | 46 | 0.0 | 0.0 | 0.00 | 0.00 | 0.00 | 89 | ||
| 20260508151034 | 46 | 0.0 | 0.0 | 0.00 | 0.00 | 0.00 | 99 | ||
| 20260508150546 | 46 | 0.0 | 0.0 | 0.00 | 0.00 | 0.00 | 88 | ||
| 20260508150023 | 47 | 0.0 | 0.0 | 0.00 | 0.00 | 0.00 | 99 | ||
| 20260508145534 | 46 | 0.0 | 0.0 | 0.00 | 0.00 | 0.00 | 88 | ||
| 20260508145031 | 47 | 0.0 | 0.0 | 0.00 | 0.00 | 0.00 | 99 | ||
| 20260508144526 | 47 | 178 | 0.0 | 1.0 | 0.00 | 0.00 | 0.00 | 87 | |
| 20260508144020 | 47 | 0.0 | 0.0 | 0.00 | 0.00 | 0.00 | 99 | ||
| 20260508143534 | 47 | 263 | 1.0 | 2.0 | 0.00 | 0.00 | 0.00 | 87 | |
| 20260508143108 | 47 | 0.0 | 0.0 | 0.00 | 0.00 | 0.00 | 99 | ||
| 20260508142526 | 47 | 240 | 1.0 | 2.0 | 0.00 | 0.00 | 0.00 | 86 | |
| 20260508142116 | 47 | 0.0 | 0.0 | 0.00 | 0.00 | 0.00 | 99 | ||
| 20260508141534 | 47 | 0.0 | 0.0 | 0.00 | 0.00 | 0.00 | 85 | ||
| 20260508141047 | 47 | 0.0 | 0.0 | 0.00 | 0.00 | 0.00 | 99 | ||
| 20260508140526 | 47 | 221 | 0.0 | 1.0 | 0.00 | 0.00 | 0.00 | 84 | |
| 20260508140034 | 47 | 0.0 | 0.0 | 0.00 | 0.00 | 0.00 | 99 | ||
| 20260508135534 | 47 | 259 | 2.0 | 3.0 | 0.00 | 0.00 | 0.00 | 84 | |
| 20260508135023 | 47 | 0.0 | 0.0 | 0.00 | 0.00 | 0.00 | 99 | ||
| 20260508134526 | 47 | 250 | 2.0 | 3.0 | 0.00 | 0.00 | 0.00 | 85 | |
| 20260508134031 | 47 | 0.0 | 0.0 | 0.00 | 0.00 | 0.00 | 99 | ||
| 20260508133554 | 47 | 224 | 0.0 | 1.0 | 0.00 | 0.00 | 0.00 | 85 | |
| 20260508133020 | 47 | 0.0 | 0.0 | 0.00 | 0.00 | 0.00 | 99 | ||
| 20260508132546 | 47 | 233 | 0.0 | 1.0 | 0.00 | 0.00 | 0.00 | 85 | |
| 20260508132049 | 47 | 0.0 | 0.0 | 0.00 | 0.00 | 0.00 | 99 | ||
| 20260508131534 | 47 | 0.0 | 0.0 | 0.00 | 0.00 | 0.00 | 85 | ||
| 20260508131036 | 47 | 0.0 | 0.0 | 0.00 | 0.00 | 0.00 | 99 | ||
| 20260508130526 | 47 | 0.0 | 0.0 | 0.00 | 0.00 | 0.00 | 85 | ||
| 20260508130025 | 47 | 0.0 | 0.0 | 0.00 | 0.00 | 0.00 | 99 | ||
| 20260508125534 | 47 | 0.0 | 0.0 | 0.00 | 0.00 | 0.00 | 84 | ||
| 20260508125032 | 47 | 0.0 | 0.0 | 0.00 | 0.00 | 0.00 | 99 | ||
| 20260508124525 | 47 | 284 | 0.0 | 3.0 | 0.00 | 0.00 | 0.00 | 84 | |
| 20260508124022 | 47 | 0.0 | 0.0 | 0.00 | 0.00 | 0.00 | 99 | ||
| 20260508123534 | 47 | 233 | 1.0 | 2.0 | 0.00 | 0.00 | 0.00 | 83 | |
| 20260508123030 | 47 | 0.0 | 0.0 | 0.00 | 0.00 | 0.00 | 99 | ||
| 20260508122526 | 47 | 259 | 2.0 | 3.0 | 0.00 | 0.00 | 0.00 | 83 | |
| 20260508122040 | 47 | 0.0 | 0.0 | 0.00 | 0.00 | 0.00 | 99 | ||
| 20260508121534 | 47 | 252 | 0.0 | 2.0 | 0.00 | 0.00 | 0.00 | 83 | |
| 20260508121027 | 47 | 0.0 | 0.0 | 0.00 | 0.00 | 0.00 | 99 | ||
| 20260508120526 | 47 | 233 | 0.0 | 1.0 | 0.00 | 0.00 | 0.00 | 83 | |
| 20260508120035 | 47 | 0.0 | 0.0 | 0.00 | 0.00 | 0.00 | 99 | ||
| 20260508115534 | 47 | 239 | 0.0 | 1.0 | 0.00 | 0.00 | 0.00 | 83 | |
| 20260508114545 | 48 | 228 | 0.0 | 1.0 | 0.00 | 0.00 | 0.00 | 81 | |
| 20260508113534 | 48 | 223 | 0.0 | 1.0 | 0.00 | 0.00 | 0.00 | 80 | |
| 20260508112526 | 48 | 233 | 1.0 | 2.0 | 0.00 | 0.00 | 0.00 | 79 | |
| 20260508111534 | 48 | 257 | 3.0 | 6.0 | 0.00 | 0.00 | 0.00 | 79 | |
| 20260508110526 | 48 | 263 | 3.0 | 6.0 | 0.00 | 0.00 | 0.00 | 79 | |
| 20260508110522 | 48 | 0.0 | 0.0 | 0.00 | 0.00 | 0.00 | 99 | ||
| 20260508105534 | 48 | 266 | 4.0 | 8.0 | 0.00 | 0.00 | 0.00 | 79 | |
| 20260508104526 | 48 | 276 | 3.0 | 5.0 | 0.00 | 0.00 | 0.00 | 79 | |
| 20260508103534 | 47 | 265 | 2.0 | 6.0 | 0.00 | 0.00 | 0.00 | 81 | |
| 20260508102535 | 47 | 0.0 | 0.0 | 0.00 | 0.00 | 0.00 | 99 | ||
| 20260508102526 | 47 | 285 | 1.0 | 2.0 | 0.00 | 0.00 | 0.00 | 82 | |
| 20260508101554 | 47 | 224 | 0.0 | 1.0 | 0.00 | 0.00 | 0.00 | 81 | |
| 20260508101545 | 47 | 0.0 | 0.0 | 0.00 | 0.00 | 0.00 | 99 | ||
| 20260508100553 | 47 | 0.0 | 0.0 | 0.00 | 0.00 | 0.00 | 99 | ||
| 20260508100546 | 47 | 269 | 2.0 | 5.0 | 0.00 | 0.00 | 0.00 | 80 | |
| 20260508095554 | 47 | 263 | 4.0 | 6.0 | 0.00 | 0.00 | 0.00 | 81 | |
| 20260508095542 | 47 | 0.0 | 0.0 | 0.00 | 0.00 | 0.00 | 99 | ||
| 20260508095427 | 47 | 0.0 | 0.0 | 0.00 | 0.00 | 0.00 | 99 | ||
| 20260508094526 | 47 | 283 | 3.0 | 5.0 | 0.00 | 0.00 | 0.00 | 82 | |
| 20260508093533 | 47 | 270 | 2.0 | 5.0 | 0.00 | 0.00 | 0.00 | 82 | |
| 20260508093519 | 47 | 0.0 | 0.0 | 0.00 | 0.00 | 0.00 | 99 | ||
| 20260508092527 | 47 | 0.0 | 0.0 | 0.00 | 0.00 | 0.00 | 99 | ||
| 20260508091535 | 47 | 0.0 | 0.0 | 0.00 | 0.00 | 0.00 | 99 | ||
| 20260508090526 | 48 | 267 | 2.0 | 5.0 | 0.00 | 0.00 | 0.00 | 78 | |
| 20260508090524 | 48 | 0.0 | 0.0 | 0.00 | 0.00 | 0.00 | 99 | ||
| 20260508085533 | 48 | 258 | 5.0 | 9.0 | 0.00 | 0.00 | 0.00 | 77 | |
| 20260508084526 | 48 | 282 | 4.0 | 7.0 | 0.00 | 0.00 | 0.00 | 78 | |
| 20260508084521 | 48 | 0.0 | 0.0 | 0.00 | 0.00 | 0.00 | 99 | ||
| 20260508083534 | 48 | 276 | 4.0 | 7.0 | 0.00 | 0.00 | 0.00 | 77 | |
| 20260508083530 | 48 | 0.0 | 0.0 | 0.00 | 0.00 | 0.00 | 99 | ||
| 20260508082538 | 48 | 0.0 | 0.0 | 0.00 | 0.00 | 0.00 | 99 | ||
| 20260508082526 | 48 | 275 | 5.0 | 7.0 | 0.00 | 0.00 | 0.00 | 77 | |
| 20260508081534 | 49 | 274 | 5.0 | 8.0 | 0.00 | 0.00 | 0.00 | 76 | |
| 20260508081527 | 49 | 0.0 | 0.0 | 0.00 | 0.00 | 0.00 | 99 | ||
| 20260508080534 | 49 | 0.0 | 0.0 | 0.00 | 0.00 | 0.00 | 99 | ||
| 20260508080526 | 49 | 285 | 6.0 | 9.0 | 0.00 | 0.00 | 0.00 | 76 | |
| 20260508075534 | 50 | 282 | 5.0 | 9.0 | 0.00 | 0.00 | 0.00 | 74 | |
| 20260508075524 | 50 | 0.0 | 0.0 | 0.00 | 0.00 | 0.00 | 99 | ||
| 20260508074537 | 50 | 0.0 | 0.0 | 0.00 | 0.00 | 0.00 | 99 | ||
| 20260508074526 | 50 | 270 | 5.0 | 8.0 | 0.00 | 0.00 | 0.00 | 71 | |
| 20260508073534 | 51 | 263 | 5.0 | 9.0 | 0.00 | 0.00 | 0.00 | 71 | |
| 20260508073521 | 51 | 0.0 | 0.0 | 0.00 | 0.00 | 0.00 | 99 | ||
| 20260508072529 | 51 | 0.0 | 0.0 | 0.00 | 0.00 | 0.00 | 99 | ||
| 20260508072526 | 51 | 265 | 6.0 | 10.0 | 0.00 | 0.00 | 0.00 | 70 | |
| 20260508071537 | 51 | 0.0 | 0.0 | 0.00 | 0.00 | 0.00 | 99 | ||
| 20260508071534 | 51 | 259 | 6.0 | 13.0 | 0.00 | 0.00 | 0.00 | 71 | |
| 20260508070526 | 52 | 0.0 | 0.0 | 0.00 | 0.00 | 0.00 | 99 | ||
| 20260508065534 | 53 | 0.0 | 0.0 | 0.00 | 0.00 | 0.00 | 99 | ||
| 20260508064547 | 53 | 293 | 0.0 | 1.0 | 0.00 | 0.00 | 0.00 | 99 | |
| 20260508064527 | 52 | 272 | 7.0 | 15.0 | 0.00 | 0.00 | 0.00 | 69 | |
| 20260508063533 | 53 | 275 | 6.0 | 14.0 | 0.00 | 0.00 | 0.00 | 69 | |
| 20260508063531 | 54 | 0.0 | 0.0 | 0.00 | 0.00 | 0.00 | 99 | ||
| 20260508062526 | 53 | 285 | 6.0 | 11.0 | 0.00 | 0.00 | 0.00 | 68 | |
| 20260508062521 | 55 | 0.0 | 0.0 | 0.00 | 0.00 | 0.00 | 99 | ||
| 20260508061534 | 54 | 281 | 4.0 | 8.0 | 0.00 | 0.00 | 0.00 | 67 | |
| 20260508061529 | 57 | 0.0 | 0.0 | 0.00 | 0.00 | 0.00 | 99 | ||
| 20260508060536 | 58 | 0.0 | 0.0 | 0.00 | 0.00 | 0.00 | 99 | ||
| 20260508060527 | 55 | 283 | 4.0 | 7.0 | 0.00 | 0.00 | 0.00 | 65 | |
| 20260508055534 | 55 | 270 | 7.0 | 11.0 | 0.00 | 0.00 | 0.00 | 65 | |
| 20260508055526 | 58 | 0.0 | 0.0 | 0.00 | 0.00 | 0.00 | 99 | ||
| 20260508054533 | 60 | 0.0 | 0.0 | 0.00 | 0.00 | 0.00 | 99 | ||
| 20260508054526 | 56 | 257 | 5.0 | 10.0 | 0.00 | 0.00 | 0.00 | 63 | |
| 20260508053620 | 60 | 0.0 | 0.0 | 0.00 | 0.00 | 0.00 | 99 | ||
| 20260508053534 | 56 | 277 | 6.0 | 11.0 | 0.00 | 0.00 | 0.00 | 62 | |
| 20260508052531 | 61 | 0.0 | 0.0 | 0.00 | 0.00 | 0.00 | 99 | ||
| 20260508052526 | 57 | 268 | 7.0 | 14.0 | 0.00 | 0.00 | 0.00 | 60 | |
| 20260508051534 | 57 | 274 | 6.0 | 11.0 | 0.00 | 0.00 | 0.00 | 62 | |
| 20260508051520 | 60 | 0.0 | 0.0 | 0.00 | 0.00 | 0.00 | 99 | ||
| 20260508050531 | 59 | 0.0 | 0.0 | 0.00 | 0.00 | 0.00 | 99 | ||
| 20260508050526 | 57 | 273 | 7.0 | 14.0 | 0.00 | 0.00 | 0.00 | 62 | |
| 20260508045534 | 56 | 285 | 8.0 | 17.0 | 0.00 | 0.00 | 0.00 | 61 | |
| 20260508045021 | 60 | 0.0 | 1.0 | 0.00 | 0.00 | 0.00 | 99 | ||
| 20260508044526 | 56 | 279 | 7.0 | 13.0 | 0.00 | 0.00 | 0.00 | 62 | |
| 20260508044049 | 59 | 0.0 | 0.0 | 0.00 | 0.00 | 0.00 | 99 | ||
| 20260508043554 | 56 | 289 | 7.0 | 13.0 | 0.00 | 0.00 | 0.00 | 62 | |
| 20260508043037 | 58 | 267 | 1.0 | 7.0 | 0.00 | 0.00 | 0.00 | 99 | |
| 20260508042546 | 56 | 285 | 10.0 | 18.0 | 0.00 | 0.00 | 0.00 | 61 | |
| 20260508042027 | 59 | 293 | 0.0 | 2.0 | 0.00 | 0.00 | 0.00 | 99 | |
| 20260508041534 | 56 | 275 | 8.0 | 16.0 | 0.00 | 0.00 | 0.00 | 62 | |
| 20260508041034 | 60 | 0.0 | 1.0 | 0.00 | 0.00 | 0.00 | 99 | ||
| 20260508040526 | 57 | 271 | 8.0 | 16.0 | 0.00 | 0.00 | 0.00 | 61 | |
| 20260508040024 | 61 | 0.0 | 0.0 | 0.00 | 0.00 | 0.00 | 99 | ||
| 20260508035534 | 56 | 271 | 5.0 | 13.0 | 0.00 | 0.00 | 0.00 | 63 | |
| 20260508035032 | 59 | 0.0 | 0.0 | 0.00 | 0.00 | 0.00 | 99 | ||
| 20260508034526 | 55 | 283 | 7.0 | 14.0 | 0.00 | 0.00 | 0.00 | 66 | |
| 20260508034021 | 59 | 0.0 | 0.0 | 0.00 | 0.00 | 0.00 | 99 | ||
| 20260508033534 | 56 | 284 | 6.0 | 13.0 | 0.00 | 0.00 | 0.00 | 64 | |
| 20260508033107 | 59 | 0.0 | 0.0 | 0.00 | 0.00 | 0.00 | 99 | ||
| 20260508032526 | 55 | 281 | 8.0 | 13.0 | 0.00 | 0.00 | 0.00 | 64 | |
| 20260508032037 | 59 | 315 | 0.0 | 6.0 | 0.00 | 0.00 | 0.00 | 99 | |
| 20260508031534 | 56 | 269 | 5.0 | 11.0 | 0.00 | 0.00 | 0.00 | 64 | |
| 20260508031026 | 58 | 0.0 | 0.0 | 0.00 | 0.00 | 0.00 | 99 | ||
| 20260508030526 | 54 | 264 | 6.0 | 13.0 | 0.00 | 0.00 | 0.00 | 66 | |
| 20260508030034 | 57 | 0.0 | 0.0 | 0.00 | 0.00 | 0.00 | 99 | ||
| 20260508025534 | 54 | 275 | 8.0 | 15.0 | 0.00 | 0.00 | 0.00 | 66 |